HAZ5836 ZBLA-ZSPD

Flight info

Callsign HAZ5836
Flight time N/A
Altitude 35100
Route HLD B451 HRB/K0837S1100 A588 BIDIB/K0843S1070 A345 DDG/K0841S1100 DCT BIGBU DCT DONVO/K0843S1130 A326 IKADI/K0859S1100 W113 SOSMA/K0852S1130 W108 MATNU W115 PINOT
Aircraft A320/M-SDE3FGHIRWY/LB1

Departure

Time 2026-05-05 05:38
Airport Hulunbuir Hailar Airport (ZBLA)

Arrival

Time N/A
Airport Shanghai Pudong International Airport (ZSPD)
Time Latitude Longitude Altitude Speed Heading
2026-05-05 05:37 49.03740 119.87412 10295 ft 324 kts 141°
2026-05-05 05:38 49.02095 119.89899 10434 ft 344 kts 129°
2026-05-05 05:38 49.00818 119.93023 10565 ft 362 kts 114°
2026-05-05 05:38 49.00003 119.96730 10691 ft 378 kts 105°
2026-05-05 05:38 48.99265 120.00650 10823 ft 393 kts 105°
2026-05-05 05:39 48.98502 120.04716 10991 ft 405 kts 105°
2026-05-05 05:39 48.97713 120.08874 11370 ft 411 kts 106°
2026-05-05 05:39 48.96907 120.13068 11822 ft 415 kts 106°
2026-05-05 05:39 48.96086 120.17297 12272 ft 419 kts 106°
2026-05-05 05:40 48.95252 120.21565 12705 ft 422 kts 106°
2026-05-05 05:40 48.94420 120.25804 13120 ft 426 kts 107°
2026-05-05 05:40 48.93563 120.30142 13538 ft 430 kts 107°
2026-05-05 05:40 48.92699 120.34507 13907 ft 433 kts 107°
2026-05-05 05:41 48.91830 120.38905 14277 ft 436 kts 107°
2026-05-05 05:41 48.90757 120.43219 14655 ft 438 kts 116°
2026-05-05 05:41 48.89254 120.47242 15040 ft 438 kts 126°
2026-05-05 05:41 48.87513 120.51052 15397 ft 440 kts 127°
2026-05-05 05:42 48.85759 120.54884 15766 ft 443 kts 127°
2026-05-05 05:42 48.84023 120.58681 16137 ft 445 kts 127°
2026-05-05 05:42 48.82256 120.62548 16494 ft 447 kts 127°
2026-05-05 05:42 48.80478 120.66437 16842 ft 450 kts 127°
2026-05-05 05:43 48.78688 120.70343 17155 ft 453 kts 127°
2026-05-05 05:43 48.76882 120.74279 17472 ft 456 kts 128°
2026-05-05 05:43 48.75061 120.78241 17752 ft 459 kts 128°
2026-05-05 05:43 48.73227 120.82225 18045 ft 463 kts 128°
2026-05-05 05:44 48.71378 120.86232 18313 ft 466 kts 128°
2026-05-05 05:44 48.69539 120.90212 18561 ft 469 kts 128°
2026-05-05 05:44 48.67664 120.94266 18796 ft 472 kts 129°
2026-05-05 05:44 48.65774 120.98350 19042 ft 475 kts 129°
2026-05-05 05:45 48.63872 121.02457 19280 ft 478 kts 129°
2026-05-05 05:45 48.61955 121.06586 19522 ft 482 kts 129°
2026-05-05 05:45 48.60021 121.10741 19734 ft 485 kts 129°
2026-05-05 05:45 48.58076 121.14916 19957 ft 488 kts 130°
2026-05-05 05:46 48.56117 121.19109 20191 ft 490 kts 130°
2026-05-05 05:46 48.54171 121.23268 20414 ft 493 kts 130°
2026-05-05 05:46 48.52186 121.27498 20654 ft 495 kts 130°
2026-05-05 05:46 48.50192 121.31744 20864 ft 498 kts 130°
2026-05-05 05:47 48.48184 121.36018 21085 ft 500 kts 130°
2026-05-05 05:47 48.46167 121.40303 21308 ft 503 kts 131°
2026-05-05 05:47 48.44138 121.44611 21490 ft 506 kts 131°
2026-05-05 05:47 48.42096 121.48941 21733 ft 508 kts 131°
2026-05-05 05:48 48.40041 121.53291 21961 ft 510 kts 131°
2026-05-05 05:48 48.38009 121.57590 22161 ft 513 kts 131°
2026-05-05 05:48 48.35934 121.61966 22356 ft 515 kts 131°
2026-05-05 05:48 48.33845 121.66357 22563 ft 517 kts 131°
2026-05-05 05:49 48.31748 121.70760 22780 ft 519 kts 132°
2026-05-05 05:49 48.29645 121.75175 22993 ft 521 kts 132°
2026-05-05 05:49 48.27531 121.79612 23186 ft 523 kts 132°
2026-05-05 05:49 48.25408 121.84055 23358 ft 525 kts 132°
2026-05-05 05:50 48.23275 121.88511 23533 ft 526 kts 132°
2026-05-05 05:50 48.21168 121.92909 23714 ft 527 kts 132°
2026-05-05 05:50 48.19026 121.97369 23876 ft 527 kts 133°
2026-05-05 05:50 48.16881 122.01823 24088 ft 528 kts 133°
2026-05-05 05:51 48.14724 122.06284 24259 ft 529 kts 133°
2026-05-05 05:51 48.12564 122.10745 24424 ft 530 kts 133°
2026-05-05 05:51 48.10405 122.15208 24660 ft 529 kts 133°
2026-05-05 05:51 48.08248 122.19674 24916 ft 529 kts 133°
2026-05-05 05:52 48.06098 122.24125 25149 ft 528 kts 133°
2026-05-05 05:52 48.03948 122.28566 25354 ft 526 kts 133°
2026-05-05 05:52 48.01835 122.32922 25644 ft 525 kts 133°
2026-05-05 05:52 47.99684 122.37330 25870 ft 524 kts 133°
2026-05-05 05:53 47.97532 122.41721 26105 ft 524 kts 133°
2026-05-05 05:53 47.95379 122.46107 26330 ft 524 kts 133°
2026-05-05 05:53 47.93224 122.50494 26582 ft 524 kts 133°
2026-05-05 05:53 47.91072 122.54873 26834 ft 523 kts 133°
2026-05-05 05:54 47.88921 122.59248 27031 ft 524 kts 133°
2026-05-05 05:54 47.86771 122.63624 27283 ft 523 kts 133°
2026-05-05 05:54 47.84651 122.67935 27520 ft 523 kts 133°
2026-05-05 05:54 47.82500 122.72291 27760 ft 522 kts 133°
2026-05-05 05:55 47.80349 122.76637 28017 ft 521 kts 133°
2026-05-05 05:55 47.78206 122.80991 28240 ft 522 kts 133°
2026-05-05 05:55 47.76082 122.85372 28500 ft 522 kts 133°
2026-05-05 05:55 47.73979 122.89766 28717 ft 522 kts 132°
2026-05-05 05:56 47.71887 122.94163 28972 ft 521 kts 132°
2026-05-05 05:56 47.69796 122.98551 29238 ft 520 kts 132°
2026-05-05 05:56 47.67700 123.02924 29487 ft 519 kts 133°
2026-05-05 05:56 47.65600 123.07276 29725 ft 519 kts 133°
2026-05-05 05:57 47.63520 123.11557 29925 ft 518 kts 133°
2026-05-05 05:57 47.61411 123.15884 30107 ft 518 kts 133°
2026-05-05 05:57 47.59299 123.20208 30249 ft 518 kts 133°
2026-05-05 05:57 47.57192 123.24521 30508 ft 516 kts 133°
2026-05-05 05:58 47.55092 123.28812 30723 ft 515 kts 133°
2026-05-05 05:58 47.52996 123.33100 30904 ft 515 kts 133°
2026-05-05 05:58 47.50913 123.37403 31086 ft 515 kts 133°
2026-05-05 05:58 47.48839 123.41726 31263 ft 515 kts 133°
2026-05-05 05:59 47.46800 123.45988 31439 ft 515 kts 133°
2026-05-05 05:59 47.44732 123.50304 31608 ft 515 kts 132°
2026-05-05 05:59 47.42661 123.54613 31767 ft 515 kts 132°
2026-05-05 05:59 47.40585 123.58917 31931 ft 515 kts 133°
2026-05-05 06:00 47.38501 123.63215 32101 ft 515 kts 133°
2026-05-05 06:00 47.36413 123.67501 32257 ft 515 kts 133°
2026-05-05 06:00 47.34323 123.71786 32423 ft 515 kts 133°
2026-05-05 06:00 47.32232 123.76068 32584 ft 515 kts 133°
2026-05-05 06:01 47.30143 123.80350 32711 ft 514 kts 132°
2026-05-05 06:01 47.28055 123.84625 32868 ft 515 kts 132°
2026-05-05 06:01 47.25990 123.88844 33017 ft 515 kts 132°
2026-05-05 06:01 47.23784 123.92951 33166 ft 508 kts 140°
2026-05-05 06:02 47.21335 123.96666 33312 ft 505 kts 143°
2026-05-05 06:02 47.18858 124.00322 33464 ft 505 kts 143°
2026-05-05 06:02 47.16382 124.03975 33619 ft 505 kts 143°
2026-05-05 06:02 47.13904 124.07629 33758 ft 505 kts 143°
2026-05-05 06:03 47.11428 124.11281 33893 ft 504 kts 142°
2026-05-05 06:03 47.08990 124.14879 34042 ft 504 kts 142°
2026-05-05 06:03 47.06519 124.18519 34192 ft 503 kts 142°
2026-05-05 06:03 47.04049 124.22151 34325 ft 503 kts 142°
2026-05-05 06:04 47.01577 124.25780 34453 ft 503 kts 142°
2026-05-05 06:04 46.99106 124.29400 34595 ft 502 kts 142°
2026-05-05 06:04 46.96641 124.33006 34739 ft 501 kts 142°
2026-05-05 06:04 46.94169 124.36621 34781 ft 503 kts 142°
2026-05-05 06:05 46.89240 124.43825 34781 ft 505 kts 142°
2026-05-05 06:05 46.84265 124.51072 34780 ft 505 kts 142°
2026-05-05 06:06 46.79279 124.58305 34762 ft 505 kts 142°
2026-05-05 06:06 46.74309 124.65508 34779 ft 503 kts 142°
2026-05-05 06:07 46.69340 124.72681 34781 ft 502 kts 142°
2026-05-05 06:07 46.64398 124.79779 34783 ft 502 kts 142°
2026-05-05 06:08 46.59418 124.86910 34776 ft 502 kts 142°
2026-05-05 06:08 46.54452 124.94048 34791 ft 502 kts 142°
2026-05-05 06:09 46.49523 125.01230 34782 ft 502 kts 142°
2026-05-05 06:09 46.44598 125.08414 34777 ft 502 kts 142°
2026-05-05 06:10 46.39692 125.15511 34779 ft 502 kts 142°
2026-05-05 06:10 46.34746 125.22635 34773 ft 502 kts 142°
2026-05-05 06:11 46.29794 125.29756 34759 ft 502 kts 142°
2026-05-05 06:11 46.24848 125.36866 34761 ft 502 kts 141°
2026-05-05 06:12 46.19929 125.44034 34774 ft 503 kts 141°
2026-05-05 06:12 46.15050 125.51165 34783 ft 503 kts 141°
2026-05-05 06:13 46.10120 125.58314 34788 ft 502 kts 141°
2026-05-05 06:13 46.05184 125.65433 34768 ft 502 kts 141°
2026-05-05 06:14 46.00241 125.72536 34771 ft 503 kts 141°
2026-05-05 06:14 45.95327 125.79597 34774 ft 503 kts 141°
2026-05-05 06:15 45.90372 125.86685 34771 ft 503 kts 141°
2026-05-05 06:15 45.85408 125.93764 34773 ft 503 kts 141°
2026-05-05 06:16 45.80442 126.00832 34769 ft 503 kts 141°
2026-05-05 06:16 45.75505 126.07856 34749 ft 503 kts 141°
2026-05-05 06:17 45.70526 126.14901 34749 ft 503 kts 142°